Location: Unspecified
(0.0000°N, 0.0000°E)
Time: 08:23:04
(UTC+00:00)

Altair - Visible Passes

Search period start: 14 March 2026 00:00
Search period end: 24 March 2026 00:00
Orbit: 1502 x 1682 km, 47.2° (Epoch: 13 March)

Date Brightness Start Highest point End Pass type
(mag) Time Alt. Az. Time Alt. Az. Time Alt. Az.
14 Mar 9.1 05:31:09 10° NNW 05:39:20 34° NE 05:47:45 10° ESE visible
14 Mar 7.6 18:20:01 10° SSW 18:29:55 72° SE 18:39:23 10° NE visible
14 Mar 9.2 20:27:21 10° W 20:34:31 23° NW 20:41:33 10° N visible
15 Mar 9.2 05:06:16 10° N 05:14:05 30° NE 05:22:06 10° ESE visible
15 Mar 9.1 20:01:33 10° WSW 20:09:15 27° NW 20:16:46 10° N visible
16 Mar 9.2 04:41:26 10° N 04:48:49 26° NE 04:56:22 10° ESE visible
16 Mar 9.0 19:35:50 10° WSW 19:43:59 30° NW 19:51:56 10° N visible
17 Mar 9.3 04:16:40 10° N 04:23:33 23° NE 04:30:34 10° E visible
17 Mar 8.9 19:10:11 10° WSW 19:18:44 34° NW 19:27:02 10° NNE visible
18 Mar 9.4 03:51:59 10° N 03:58:17 20° NE 04:04:40 10° E visible
18 Mar 8.8 18:44:34 10° WSW 18:53:29 39° NW 19:02:07 10° NNE visible
19 Mar 9.5 03:27:24 10° N 03:32:59 17° NE 03:38:38 10° E visible
19 Mar 7.6 05:28:20 10° NW 05:37:41 89° SW 05:47:27 10° SE visible
19 Mar 8.8 18:19:02 10° WSW 18:28:14 44° NW 18:37:08 10° NNE visible
20 Mar 9.6 03:02:58 10° NNE 03:07:40 15° NE 03:12:24 10° ENE visible
20 Mar 7.6 05:03:09 10° NW 05:12:28 83° NE 05:22:11 10° SE visible
21 Mar 9.6 02:39:00 10° NNE 02:42:21 12° NE 02:45:52 10° ENE visible
21 Mar 7.6 04:38:00 10° NNW 04:47:16 74° NE 04:56:52 10° SE visible
22 Mar 9.7 02:16:24 10° NE 02:17:00 10° NE 02:18:21 10° NE visible
22 Mar 7.7 04:14:32 17° NNW 04:22:02 66° NE 04:31:32 10° SE visible
23 Mar 7.8 03:51:57 30° NNW 03:56:49 59° NE 04:06:10 10° SE visible
23 Mar 9.9 18:49:10 10° WNW 18:52:20 12° NW 18:55:30 10° NNW visible
